SCP
0 0 0 0 0 0 0 0 0 0 0 0 1 1 1 1 1 1 1 1 1 1 1 1 1 1 1 1 1 1 2 2 2 2 3 4 5 4 3 3 3 3 4 4
0 0 0 0 0 0 0 0 0 0 0 0 1 1 1 1 1 1 1 1 1 1 1 1 1 1 1 1 1 1 1 2 2 3 4 6 6 5 3 2 2 3 4 4
0 0 0 0 0 0 0 0 0 0 0 0 0 1 1 1 1 1 1 1 1 1 1 1 1 1 1 1 1 1 1 2 3 4 6 7 7 5 3 2 2 3 4 4
0 0 0 0 0 0 0 0 0 0 0 0 0 0 1 1 1 1 1 1 1 1 1 2 2 2 1 1 1 1 1 2 4 6 7 7 6 4 3 2 2 2 3 3
0 0 0 0 0 0 0 0 0 0 0 0 0 0 1 1 1 1 1 1 2 2 2 2 2 2 2 2 2 2 2 2 4 6 7 6 5 3 2 1 1 1 2 2
0 0 0 0 0 0 0 0 0 0 0 0 0 0 1 1 1 1 1 1 2 2 2 2 2 3 3 2 2 2 2 2 3 3 4 4 3 2 1 1 1 1 1 2
0 0 0 0 0 0 0 0 0 0 0 0 0 0 1 1 1 1 1 1 2 2 3 2 2 2 3 2 2 2 2 2 2 2 2 2 1 1 1 1 1 1 1 2
0 0 0 0 0 0 0 0 0 0 0 0 0 1 1 1 1 1 1 1 2 2 3 3 3 2 2 2 2 2 2 2 2 2 2 2 1 1 1 1 1 1 2 1
0 0 0 0 0 0 0 0 0 0 0 0 0 1 1 1 1 1 1 2 2 2 2 2 2 2 2 2 2 2 3 3 3 3 2 2 2 2 2 2 2 2 1 1
0 0 0 0 0 0 0 0 0 0 0 0 0 1 1 2 2 1 2 2 2 2 2 2 1 1 2 2 2 2 3 3 3 3 3 2 2 2 2 2 3 3 2 2
0 0 0 0 0 0 0 0 0 0 0 0 0 1 1 2 2 2 2 2 2 2 2 2 2 2 2 2 2 2 3 3 3 3 3 2 2 2 3 3 4 4 3 3
0 0 0 0 0 0 0 0 0 0 0 0 0 1 1 2 2 2 2 2 2 2 3 3 3 2 2 3 3 3 3 3 3 3 3 3 3 3 3 4 4 4 4 4
0 0 0 0 0 0 0 0 0 0 0 0 0 1 1 1 2 2 2 3 2 2 2 3 3 3 4 5 5 5 4 4 3 3 4 4 4 4 4 5 5 4 4 4
0 0 0 0 0 0 0 0 0 0 0 0 1 1 1 1 2 2 2 3 3 2 2 3 4 5 7 8 9 8 6 4 4 4 5 5 5 5 5 5 6 5 5 5
0 0 0 0 0 0 0 0 0 0 0 0 1 1 1 2 2 3 3 3 3 3 3 4 6 9 11 11 11 9 7 5 4 5 6 6 6 6 6 6 6 6 6 6
0 0 0 0 0 0 0 0 1 1 1 1 1 1 1 2 2 3 2 3 3 3 5 7 10 12 13 13 11 9 7 6 5 5 6 6 6 6 7 7 7 7 7 6
0 0 0 0 0 0 1 1 1 1 1 1 1 1 1 2 2 3 3 3 4 5 7 9 11 13 13 12 10 8 8 7 6 6 6 6 6 7 7 7 8 8 8 8
0 0 0 0 0 1 1 1 1 1 1 1 1 1 1 2 3 3 4 4 5 7 9 11 12 12 11 10 9 8 7 6 6 6 6 5 5 6 7 8 8 9 9 9
0 0 0 0 0 1 1 1 1 1 1 1 1 2 2 2 3 4 5 6 7 8 10 12 12 10 9 8 7 6 6 5 5 6 6 5 5 5 6 7 8 9 10 10
0 0 0 0 0 1 1 1 1 1 1 1 2 2 2 2 3 5 6 6 7 9 10 11 10 8 7 6 6 6 7 7 7 7 7 7 6 6 6 6 7 9 10 10
0 0 0 0 0 1 1 1 1 2 2 2 2 2 2 3 4 5 6 6 7 8 9 9 8 7 6 6 6 7 8 9 9 8 8 7 6 6 7 7 8 9 9 7
1 1 1 0 1 1 1 1 2 2 2 3 3 3 3 4 4 5 6 6 6 7 7 7 6 6 6 6 7 8 8 8 9 9 8 7 6 5 6 8 9 9 7 6
1 1 1 1 1 1 1 1 2 2 3 3 3 4 4 4 4 5 6 6 5 5 5 5 5 5 5 6 6 6 5 5 6 7 6 6 5 6 7 8 9 8 7 7
1 1 1 1 1 1 1 1 2 2 2 3 3 3 3 3 3 4 5 5 5 5 5 4 3 3 4 5 5 5 5 5 5 5 5 5 5 6 8 8 6 6 7 7
1 1 1 2 2 1 1 1 1 2 2 2 3 2 2 2 2 3 4 4 4 4 4 3 3 3 3 4 5 6 6 6 6 5 5 4 4 5 5 5 4 4 4 4
1 1 2 2 2 2 2 2 1 1 1 2 2 2 2 2 2 3 4 4 4 3 3 3 3 3 3 4 5 6 7 7 7 6 4 3 3 4 3 3 2 2 2 2
Wind_Speed
8 9 8 5 5 5 5 6 4 1 0 3 3 2 3 6 5 5 6 6 7 6 7 7 8 8 7 7 6 6 5 5 5 4 4 4 4 4 3 3 4 5 4 5
9 10 6 4 5 7 8 8 5 2 1 4 4 4 3 5 6 5 5 6 7 7 7 8 9 8 8 8 7 7 6 6 6 4 3 3 2 3 3 3 4 4 5 5
11 3 3 6 7 8 9 8 6 4 4 6 6 6 5 5 5 5 5 5 6 7 8 9 9 9 9 8 8 6 7 7 6 5 4 3 3 3 3 3 3 5 5 5
8 5 5 8 9 9 9 5 6 6 8 5 6 7 4 5 6 6 6 5 6 7 8 8 9 10 9 9 8 7 7 7 7 6 5 5 4 3 3 2 2 3 5 5
7 7 8 9 8 8 5 4 7 8 9 9 7 8 2 4 4 5 6 6 6 7 8 8 9 9 8 8 8 7 7 7 7 6 5 5 4 3 2 2 2 2 3 5
6 5 6 6 5 5 4 6 6 9 10 10 6 8 3 1 2 2 3 5 6 6 7 8 8 8 8 7 7 7 7 6 6 6 6 5 4 4 3 3 3 3 3 3
9 9 7 5 7 8 9 9 7 8 8 6 3 7 2 1 1 2 2 4 4 5 6 7 8 9 8 8 7 7 7 6 6 7 6 6 5 5 5 5 4 4 3 3
10 10 9 7 8 7 9 11 8 8 7 4 6 5 0 2 1 0 1 3 4 4 5 6 7 8 8 8 8 7 7 7 7 6 6 5 6 5 4 5 4 4 4 3
7 6 6 5 6 8 8 9 9 10 9 8 4 3 3 3 3 2 3 3 4 4 4 5 5 7 7 8 7 7 7 6 6 6 5 5 5 5 4 4 5 4 3 3
5 6 6 6 7 5 8 7 7 9 8 9 7 7 3 3 3 3 3 3 3 4 4 4 4 5 6 7 7 7 7 6 6 6 5 4 5 5 4 4 4 3 3 3
8 8 7 8 8 7 7 8 8 8 8 9 7 2 3 2 1 3 3 3 3 3 4 4 4 4 5 6 6 6 6 6 5 5 5 4 4 4 4 4 4 3 3 3
7 8 7 7 3 4 8 8 9 9 8 9 10 1 5 3 2 2 3 3 3 2 2 3 4 4 4 5 5 5 5 5 5 5 5 4 4 4 4 4 4 4 4 4
5 7 8 9 10 8 8 8 9 10 9 9 11 3 6 4 3 3 3 3 3 3 3 3 4 4 3 3 3 4 4 4 4 4 4 4 4 4 4 4 4 4 5 5
6 9 10 10 5 5 8 8 9 11 10 10 10 6 3 3 3 2 3 3 3 3 3 3 3 3 3 3 2 2 2 3 3 3 4 4 4 5 5 4 4 4 5 5
7 9 10 9 6 7 8 9 10 11 11 12 9 8 4 2 3 2 3 3 3 3 3 3 3 3 2 2 2 2 2 2 2 3 3 4 4 4 4 4 4 4 5 5
6 8 8 10 9 9 11 11 11 12 11 11 11 9 2 2 3 3 4 4 3 2 2 2 2 2 2 2 1 2 2 2 2 2 2 3 3 4 4 4 4 4 4 5
6 7 9 11 9 10 14 12 12 11 10 11 11 6 2 3 3 3 4 4 3 2 1 1 1 1 1 1 1 1 1 1 2 2 2 2 3 4 4 4 4 4 4 4
7 8 8 9 8 14 5 1 6 9 9 8 7 4 4 3 2 2 2 2 2 1 1 1 1 1 1 1 1 1 2 2 1 2 2 2 3 3 3 4 4 4 4 4
7 8 8 9 12 12 7 4 5 8 9 7 7 5 4 3 3 3 2 1 0 0 0 0 1 1 0 0 1 1 1 1 1 1 2 2 3 3 4 4 4 4 3 4
7 8 10 10 12 12 3 3 1 6 9 3 4 4 5 6 6 2 3 1 1 1 1 1 1 1 1 0 1 1 1 1 1 1 2 2 2 3 4 3 3 3 4 4
9 9 12 13 13 8 3 3 3 8 2 2 2 4 5 4 2 3 2 2 1 1 1 1 1 1 1 1 1 1 1 1 1 1 1 2 2 3 3 3 3 3 4 4
8 8 10 10 12 7 4 2 4 4 4 0 1 2 2 1 2 3 3 2 2 1 1 1 1 1 1 1 0 0 1 2 2 1 2 2 2 3 2 2 2 3 3 4
6 5 4 5 3 3 1 2 2 3 2 1 1 1 2 2 2 2 2 2 1 1 1 1 1 1 1 1 1 1 1 2 2 2 2 2 2 2 2 3 3 3 3 4
4 2 4 5 3 2 2 2 2 2 2 2 1 2 2 2 2 2 2 1 1 0 1 1 0 0 0 1 1 1 1 1 2 3 2 2 2 2 1 2 3 3 3 3
3 4 5 7 4 3 2 2 2 2 2 1 1 2 2 2 2 2 2 2 1 1 1 1 1 1 1 1 1 1 1 1 2 3 3 2 2 2 1 1 1 2 2 2
6 6 7 5 3 4 4 2 3 2 2 1 1 1 1 1 1 1 1 1 1 1 1 2 2 2 2 2 2 1 1 1 2 2 3 2 2 1 1 1 0 2 1 1
Wind_Direction
195 219 221 227 252 278 274 271 273 286 212 260 258 254 189 175 188 180 177 178 180 183 173 175 178 176 171 170 175 178 183 181 192 189 193 186 185 187 183 186 183 191 195 190
202 223 234 250 243 240 249 258 259 222 193 266 263 255 216 182 194 197 194 189 190 181 176 180 182 182 181 179 183 185 189 189 199 195 207 206 198 198 187 192 182 196 195 194
224 209 202 224 228 239 244 257 268 268 247 231 255 231 200 182 195 200 208 206 200 189 184 182 182 185 185 186 190 193 197 195 199 196 198 189 184 203 193 195 195 203 203 201
232 216 214 226 231 244 245 252 266 254 250 242 252 268 189 187 200 206 210 211 207 194 188 183 182 186 189 189 188 193 197 195 193 195 202 197 199 203 200 206 197 196 202 208
208 211 220 233 238 247 266 270 253 250 254 261 240 266 223 184 224 218 211 216 211 196 190 185 185 184 188 189 187 185 187 188 187 194 196 206 217 213 205 208 196 213 200 206
227 209 235 246 239 231 217 224 226 236 248 249 252 264 262 186 268 259 209 206 209 201 190 181 180 179 183 184 183 180 179 183 184 191 197 201 215 223 229 227 226 220 211 208
213 210 206 222 216 195 218 233 231 228 229 241 207 254 290 11 321 293 225 198 195 195 189 181 178 178 179 181 182 179 176 181 186 193 202 203 211 219 225 233 228 239 237 221
213 206 190 206 231 224 225 244 257 268 267 243 193 244 145 79 95 38 151 157 166 174 176 177 178 176 176 179 181 180 178 179 185 193 201 206 213 221 226 230 242 237 246 246
226 205 164 201 231 243 223 238 265 268 268 271 237 209 181 154 146 142 136 144 156 163 160 158 164 169 171 178 179 180 177 177 182 189 191 195 207 223 229 226 230 239 245 243
244 233 187 179 202 215 259 249 242 250 256 260 242 233 221 178 177 158 148 142 152 159 153 151 152 163 165 169 171 174 175 180 183 184 194 192 201 211 220 230 235 246 253 258
241 236 198 191 216 211 203 223 239 250 259 268 266 228 89 157 160 163 157 145 143 153 153 146 148 152 161 161 164 168 174 177 182 188 192 202 203 209 217 224 234 239 248 251
225 243 231 208 184 261 237 236 232 243 243 256 275 267 105 114 118 130 125 113 107 122 130 133 140 143 148 157 162 164 175 183 189 189 191 197 205 209 217 222 230 235 240 242
205 235 227 205 191 198 222 226 238 251 251 250 259 234 126 128 129 119 116 110 116 122 121 123 128 135 138 143 155 160 178 183 184 186 195 196 206 211 220 231 235 235 237 242
243 240 249 258 263 204 214 217 226 242 248 252 257 267 186 167 171 145 128 127 126 122 125 124 127 127 127 128 142 163 171 168 182 189 198 205 217 218 221 229 236 237 236 239
239 238 241 261 266 245 238 230 227 241 261 271 273 270 258 214 215 185 158 145 138 127 129 132 132 125 133 137 150 168 169 163 176 194 205 210 222 224 224 228 232 235 238 239
235 250 242 241 239 241 245 240 237 242 250 258 265 266 281 216 203 192 187 175 167 155 140 133 141 145 150 158 172 172 180 174 193 210 212 212 221 225 228 230 234 235 237 244
219 230 240 243 232 240 239 235 237 241 245 251 258 265 199 206 203 209 206 199 194 183 166 163 163 160 165 178 183 175 182 196 212 225 227 221 226 228 233 237 233 236 238 238
232 233 239 246 230 240 248 242 248 251 249 252 261 247 212 194 191 219 217 207 194 185 181 174 178 170 175 178 171 183 179 184 216 238 240 242 244 241 239 238 237 238 237 240
228 230 242 241 240 245 226 208 232 248 253 245 241 225 199 160 180 196 174 154 149 102 102 125 181 168 119 156 174 183 194 195 221 256 272 265 255 248 242 241 243 242 243 247
199 223 240 239 250 250 242 125 243 257 245 203 214 200 185 192 222 169 117 98 55 38 61 71 97 86 86 92 186 199 221 225 251 272 280 285 272 256 249 247 247 244 244 249
199 212 231 240 246 252 63 102 196 236 301 88 204 198 202 225 329 84 115 100 88 74 82 90 85 69 46 20 168 207 271 272 285 294 285 276 277 266 260 256 254 254 253 258
233 227 226 237 243 238 81 176 239 346 9 313 216 202 198 123 95 126 135 131 130 123 129 115 91 61 41 23 167 253 317 322 309 285 271 268 267 266 250 249 255 258 258 250
246 281 273 260 282 39 305 297 333 316 294 267 220 174 176 171 162 151 146 146 137 140 138 128 112 83 63 7 268 273 323 325 314 298 285 283 272 266 259 243 237 240 245 258
203 260 257 255 237 280 270 301 316 302 284 271 231 198 196 190 178 170 164 157 162 135 151 135 140 281 317 304 277 284 302 316 317 305 298 285 271 261 264 272 259 259 261 266
266 226 236 244 251 264 239 292 311 307 283 237 203 205 209 201 191 181 175 178 182 211 190 209 223 242 266 289 276 270 279 310 305 294 294 292 287 296 283 283 317 293 307 320
239 245 251 261 267 269 270 281 285 274 268 230 213 212 217 219 196 199 207 213 229 254 232 233 240 251 259 262 262 259 254 231 260 267 279 285 287 300 298 300 174 65 10 75